Regional Weather Roundup
Issued by NWS Green Bay, WI

Home | Current Version | Previous Version | Graphics & Text | Print | Product List | Glossary Off
Versions: 1 2 3 4 5 6 7 8 9 10 11 12 13 14 15 16 17 18 19 20 21 22 23 24 25 26 27 28 29 30 31 32 33 34 35 36 37 38 39 40 41 42 43 44 45 46 47 48 49 50

000
ASUS43 KGRB 251959
RWRGRB

NORTH-CENTRAL AND NORTHEAST WISCONSIN REGIONAL WEATHER ROUNDUP
NATIONAL WEATHER SERVICE GREEN BAY WI
200 PM CST TUE NOV 25 2014

WIZ005-009-010>012-018-019-252100-
NORTH CENTRAL WISCONSIN

CITY           SKY/WX    TMP DP  RH WIND       PRES   REMARKS
IRONWOOD       SUNNY     18  10  73 SW6       29.94F WCI   9
MANITOWISH WTR NOT AVBL
ARBOR VITAE    NOT AVBL
EAGLE RIVER    NOT AVBL
LAND O LAKES   NOT AVBL
RHINELANDER    CLOUDY    19  11  70 W6        29.97R
PHILLIPS       NOT AVBL
ANTIGO         NOT AVBL
TOMAHAWK       NOT AVBL
MERRILL        NOT AVBL
$$

WIZ013-073-252100-
NORTHEAST WISCONSIN

CITY           SKY/WX    TMP DP  RH WIND       PRES   REMARKS
IRON MOUNTAIN  MIX PCPN  24  11  57 NW8       29.95R
MARINETTE      CLOUDY    27  16  63 NW8       29.99R
$$

WIZ017-030-035>037-045-252100-
CENTRAL WISCONSIN

CITY           SKY/WX    TMP DP  RH WIND       PRES   REMARKS
MEDFORD        NOT AVBL
WAUSAU         PTSUNNY   18  12  77 W10       30.01R WCI   6
MOSINEE        PTSUNNY   19  16  86 W9        30.02R WCI   9
MARSHFIELD     SUNNY     20  11  68 W7        30.02R
WISC RAPIDS    PTSUNNY   20  13  74 SW8       30.06R
STEVENS POINT  NOT AVBL
WAUPACA        NOT AVBL
SHAWANO        NOT AVBL
CLINTONVILLE   NOT AVBL
$$

WIZ038-039-048-051-252100-
FOX VALLEY

CITY           SKY/WX    TMP DP  RH WIND       PRES   REMARKS
NWS GREEN BAY  CLOUDY    24  16  71 W13       30.03R
APPLETON       CLOUDY    21  18  86 W7        30.03R
OSHKOSH        CLOUDY    22  15  75 W7        30.05R
FOND DU LAC    MIX PCPN  22  15  75 W7        30.05R
$$

WIZ022-050-052-252100-
EAST CENTRAL WISCONSIN

CITY           SKY/WX    TMP DP  RH WIND       PRES   REMARKS
STURGEON BAY   CLOUDY    25  18  74 W10       30.00R
MANITOWOC      NOT AVBL
SHEBOYGAN      CLOUDY    22  15  75 W12       30.05R
$$

LMZ563-521-522-541>543-252100-
LAKESHORE

STATION/POSITION TIME  TEMP    WIND        PRES    VSBY  WAVE
                       AIR SEA DIR/SP/G                  HT/PER
                 (UTC) (F)     (DEG/KT/KT) (MB)    (MI)  (FT/S)
SHEBOYGAN LKSHOR 1900   23 36  290/ 11/ 14 1018.3R
KEWAUNEE LKSHORE 1900   23     300/ 10/ 14 1015.4R
TWO RIVERS CG    1900   24                 1016.5      6   1
NORTHPORT PIER   1900   27     310/  9/ 17 1015.2R
N MID LAKE BUOY  1900   29 42  300/ 16/ 19 1014.8R         4/ 5
STURGEON BAY CG  1900   25     310/  8     1015.8      6   0
CHAMBERS ISLAND  1900   27     300/  6/ 10 1015.6S
MENOMINEE LKSHOR 1900   27     300/  7/ 10 1016.1R
$$


USA.gov is the U.S. government's official web portal to all federal, state and local government web resources and services.